Notices

What's New in latest Release from April 7th, 2021:

- Updated Glossary, including Speed of Maximum Gust, and Total Hourly Precipitation

- Updated national and regional climate services offices contacts and prices information

- Addition of station inventory lists for 1981-2010, 1971-2000, and 1961-1990 Normals.

If you haven't already, please take our survey and provide feedback about our website: https://eccc.sondage-survey.ca/f/LanguageSelection.aspx?s=442ca660-fcf1-47c0-95a9-59707d6fd709

Hourly Data Report for November 07, 2019

VICTORIA UNIVERSITY CS
BRITISH COLUMBIA
Current Station Operator: ECCC - MSC

48°27'25.200" N
123°18'16.600" W
60.10 m
1018598
71783
WYJ

Download Data

Hourly Data (November 2019)
Hourly Data Report for November 7, 2019
TIME
LST
Temp Definition
°C
Dew Point Definition
°C
Rel Hum Definition
%
Precip. Amount Definition
mm

Wind Dir Definition
10's deg

Wind Spd Definition
km/h
Visibility Definition
km
Stn Press Definition
kPa
Hmdx Definition


Wind Chill Definition


Weather Definition


00:00 7.2 5.6 89 0.0 35 6   101.72     LegendNANA
01:00 7.8 5.0 83 0.0 34 7   101.75     LegendNANA
02:00 7.9 4.8 81 0.0 34 5   101.73     LegendNANA
03:00 7.3 4.8 84 0.0 34 6   101.69     LegendNANA
04:00 7.7 4.8 82 0.0 34 7   101.68     LegendNANA
05:00 7.2 4.7 84 0.0 36 7   101.67     LegendNANA
06:00 7.1 4.5 84 0.0 34 6   101.67     LegendNANA
07:00 7.8 4.5 80 0.0 36 10   101.67     LegendNANA
08:00 8.1 4.8 80 0.0 36 7   101.67     LegendNANA
09:00 8.8 5.3 78 0.0 35 7   101.69     LegendNANA
10:00 9.0 4.7 74 0.0 1 9   101.66     LegendNANA
11:00 9.6 5.3 75 0.0 36 10   101.64     LegendNANA
12:00 9.6 4.8 72 0.0 36 9   101.62     LegendNANA
13:00 9.7 3.9 67 0.0 1 10   101.57     LegendNANA
14:00 10.4 3.5 62 0.0 36 10   101.54     LegendNANA
15:00 10.0 5.0 71 0.0 2 8   101.50     LegendNANA
16:00 9.7 3.7 67 0.0 1 9   101.46     LegendNANA
17:00 8.7 3.3 69 0.0 34 6   101.45     LegendNANA
18:00 8.0 3.1 71 0.0 36 5   101.45     LegendNANA
19:00 8.3 3.4 71 0.0 33 5   101.48     LegendNANA
20:00 8.3 4.0 74 0.0 35 6   101.45     LegendNANA
21:00 8.4 4.5 77 0.0 36 7   101.47     LegendNANA
22:00 7.9 5.2 83 0.0 36 7   101.49     LegendNANA
23:00 8.0 4.2 77 0.0 36 6   101.46     LegendNANA

Notes on Data Quality.

Legend

  • E = Estimated
  • M = Missing
  • NA = Not Available*
  • [empty] = Indicates an unobserved value
Date modified: